Location: Rancho Del Sol Observatory
(38.7214°N, 120.6350°W)
Time: 08:52:51
(UTC-08:00)

Courier 1B Rocket - Pass Details

Date: 26 January 2020
Orbit: 920 x 1202 km, 28.2° (Epoch: 16 February)

Event Time Altitude Azimuth Distance (km) Brightness Sun altitude
Rises 16:21:16 0° 258° (WSW) 3,708 9.6 8.8°
Reaches altitude 10° 16:25:36 10° 233° (SW) 2,697 10.3 8.0°
Maximum altitude 16:28:27 13° 206° (SSW) 2,436 8.2 7.6°
Drops below altitude 10° 16:31:15 10° 179° (S) 2,634 7.8 7.1°
Sets 16:35:23 0° 153° (SSE) 3,547 8.0 6.4°
